| time (UTC) | temp F | wind direction | speed MPH | gust MPH | rain 1hr in | rain 24hr in | rain mn in | humidity % | barometer mb |
| 20260505001545 | 70 | 240 | 2.0 | 9.0 | 0.00 | 0.00 | 0.00 | 38 | 1006.1 |
| 20260505001043 | 70 | 229 | 3.0 | 9.0 | 0.00 | 0.00 | 0.00 | 37 | 1006.1 |
| 20260505000543 | 70 | 252 | 2.0 | 5.0 | 0.00 | 0.00 | 0.00 | 38 | 1006.1 |
| 20260505000041 | 70 | 93 | 2.0 | 9.0 | 0.00 | 0.00 | 0.00 | 37 | 1006.1 |
| 20260504235545 | 71 | 215 | 3.0 | 9.0 | 0.00 | 0.00 | 0.00 | 37 | 1006.0 |
| 20260504235142 | 71 | 187 | 1.0 | 10.0 | 0.00 | 0.00 | 0.00 | 36 | 1006.1 |
| 20260504234543 | 71 | 200 | 1.0 | 7.0 | 0.00 | 0.00 | 0.00 | 36 | 1006.0 |
| 20260504234040 | 72 | 248 | 1.0 | 9.0 | 0.00 | 0.00 | 0.00 | 36 | 1006.0 |
| 20260504233541 | 72 | 173 | 4.0 | 9.0 | 0.00 | 0.00 | 0.00 | 35 | 1005.9 |
| 20260504233042 | 72 | 255 | 3.0 | 10.0 | 0.00 | 0.00 | 0.00 | 34 | 1005.8 |
| 20260504232640 | 73 | 263 | 1.0 | 9.0 | 0.00 | 0.00 | 0.00 | 34 | 1005.8 |
| 20260504232039 | 73 | 150 | 3.0 | 9.0 | 0.00 | 0.00 | 0.00 | 33 | 1005.8 |
| 20260504231539 | 73 | 261 | 2.0 | 12.0 | 0.00 | 0.00 | 0.00 | 33 | 1005.8 |
| 20260504231039 | 74 | 237 | 3.0 | 12.0 | 0.00 | 0.00 | 0.00 | 33 | 1005.8 |
| 20260504230538 | 74 | 281 | 2.0 | 7.0 | 0.00 | 0.00 | 0.00 | 33 | 1005.9 |
| 20260504230040 | 74 | 13 | 2.0 | 11.0 | 0.00 | 0.00 | 0.00 | 33 | 1005.7 |
| 20260504225538 | 74 | 180 | 4.0 | 10.0 | 0.00 | 0.00 | 0.00 | 32 | 1005.8 |
| 20260504225037 | 74 | 195 | 2.0 | 7.0 | 0.00 | 0.00 | 0.00 | 32 | 1005.7 |
| 20260504224537 | 75 | 202 | 0.0 | 15.0 | 0.00 | 0.00 | 0.00 | 32 | 1005.7 |
| 20260504224138 | 75 | 228 | 3.0 | 15.0 | 0.00 | 0.00 | 0.00 | 31 | 1005.8 |
| 20260504223537 | 75 | 146 | 1.0 | 7.0 | 0.00 | 0.00 | 0.00 | 31 | 1005.8 |
| 20260504223054 | 75 | 228 | 3.0 | 12.0 | 0.00 | 0.00 | 0.00 | 32 | 1005.7 |
| 20260504222535 | 75 | 231 | 3.0 | 12.0 | 0.00 | 0.00 | 0.00 | 31 | 1005.8 |
| 20260504222035 | 75 | 162 | 3.0 | 11.0 | 0.00 | 0.00 | 0.00 | 31 | 1005.8 |
| 20260504221535 | 76 | 313 | 1.0 | 8.0 | 0.00 | 0.00 | 0.00 | 32 | 1005.8 |
| 20260504221035 | 76 | 188 | 3.0 | 10.0 | 0.00 | 0.00 | 0.00 | 32 | 1005.8 |
| 20260504220534 | 76 | 112 | 3.0 | 13.0 | 0.00 | 0.00 | 0.00 | 32 | 1005.9 |
| 20260504220034 | 76 | 238 | 6.0 | 13.0 | 0.00 | 0.00 | 0.00 | 31 | 1005.8 |
| 20260504215534 | 76 | 181 | 4.0 | 10.0 | 0.00 | 0.00 | 0.00 | 30 | 1005.7 |
| 20260504215036 | 76 | 220 | 3.0 | 12.0 | 0.00 | 0.00 | 0.00 | 30 | 1005.7 |
| 20260504214534 | 76 | 196 | 8.0 | 13.0 | 0.00 | 0.00 | 0.00 | 28 | 1005.7 |
| 20260504214036 | 76 | 215 | 1.0 | 11.0 | 0.00 | 0.00 | 0.00 | 28 | 1005.7 |
| 20260504213532 | 76 | 244 | 4.0 | 14.0 | 0.00 | 0.00 | 0.00 | 28 | 1005.7 |
| 20260504213031 | 75 | 282 | 4.0 | 15.0 | 0.00 | 0.00 | 0.00 | 29 | 1005.7 |
| 20260504212532 | 75 | 288 | 8.0 | 22.0 | 0.00 | 0.00 | 0.00 | 28 | 1005.8 |
| 20260504212031 | 75 | 226 | 11.0 | 22.0 | 0.00 | 0.00 | 0.00 | 28 | 1005.8 |
| 20260504211539 | 75 | 223 | 8.0 | 17.0 | 0.00 | 0.00 | 0.00 | 29 | 1005.8 |
| 20260504211030 | 75 | 134 | 5.0 | 14.0 | 0.00 | 0.00 | 0.00 | 29 | 1005.9 |
| 20260504210531 | 75 | 288 | 5.0 | 18.0 | 0.00 | 0.00 | 0.00 | 29 | 1006.0 |
| 20260504210028 | 75 | 202 | 8.0 | 18.0 | 0.00 | 0.00 | 0.00 | 28 | 1006.1 |
| 20260504205530 | 76 | 229 | 8.0 | 18.0 | 0.00 | 0.00 | 0.00 | 27 | 1006.1 |
| 20260504205026 | 76 | 246 | 6.0 | 18.0 | 0.00 | 0.00 | 0.00 | 29 | 1006.2 |
| 20260504204525 | 76 | 264 | 7.0 | 16.0 | 0.00 | 0.00 | 0.00 | 28 | 1006.2 |
| 20260504204025 | 76 | 250 | 4.0 | 18.0 | 0.00 | 0.00 | 0.00 | 31 | 1006.4 |
| 20260504203524 | 76 | 271 | 6.0 | 18.0 | 0.00 | 0.00 | 0.00 | 30 | 1006.5 |
| 20260504203024 | 76 | 260 | 5.0 | 15.0 | 0.00 | 0.00 | 0.00 | 32 | 1006.5 |
| 20260504202522 | 76 | 259 | 4.0 | 13.0 | 0.00 | 0.00 | 0.00 | 30 | 1006.5 |
| 20260504202021 | 76 | 178 | 7.0 | 13.0 | 0.00 | 0.00 | 0.00 | 30 | 1006.6 |
| 20260504201520 | 76 | 281 | 6.0 | 16.0 | 0.00 | 0.00 | 0.00 | 29 | 1006.7 |
| 20260504201019 | 75 | 239 | 4.0 | 18.0 | 0.00 | 0.00 | 0.00 | 29 | 1006.7 |
| 20260504200519 | 76 | 269 | 6.0 | 17.0 | 0.00 | 0.00 | 0.00 | 30 | 1006.8 |
| 20260504200018 | 76 | 202 | 5.0 | 17.0 | 0.00 | 0.00 | 0.00 | 30 | 1006.9 |
| 20260504195520 | 75 | 204 | 5.0 | 17.0 | 0.00 | 0.00 | 0.00 | 30 | 1007.0 |
| 20260504195015 | 75 | 242 | 5.0 | 14.0 | 0.00 | 0.00 | 0.00 | 33 | 1007.1 |
| 20260504194515 | 75 | 263 | 8.0 | 17.0 | 0.00 | 0.00 | 0.00 | 32 | 1007.0 |
| 20260504194014 | 75 | 207 | 2.0 | 19.0 | 0.00 | 0.00 | 0.00 | 32 | 1007.2 |
| 20260504193514 | 75 | 194 | 10.0 | 19.0 | 0.00 | 0.00 | 0.00 | 31 | 1007.3 |
| 20260504193014 | 75 | 294 | 3.0 | 13.0 | 0.00 | 0.00 | 0.00 | 31 | 1007.3 |
| 20260504192513 | 75 | 252 | 8.0 | 15.0 | 0.00 | 0.00 | 0.00 | 31 | 1007.3 |
| 20260504192013 | 74 | 223 | 8.0 | 19.0 | 0.00 | 0.00 | 0.00 | 32 | 1007.4 |
| 20260504191511 | 74 | 281 | 8.0 | 19.0 | 0.00 | 0.00 | 0.00 | 32 | 1007.5 |
| 20260504191013 | 74 | 277 | 9.0 | 16.0 | 0.00 | 0.00 | 0.00 | 33 | 1007.5 |
| 20260504190511 | 74 | 211 | 10.0 | 20.0 | 0.00 | 0.00 | 0.00 | 31 | 1007.6 |
| 20260504190010 | 74 | 247 | 10.0 | 23.0 | 0.00 | 0.00 | 0.00 | 32 | 1007.6 |
| 20260504185510 | 75 | 178 | 7.0 | 16.0 | 0.00 | 0.00 | 0.00 | 31 | 1007.7 |
| 20260504185008 | 75 | 224 | 9.0 | 17.0 | 0.00 | 0.00 | 0.00 | 32 | 1007.7 |
| 20260504184507 | 75 | 226 | 6.0 | 16.0 | 0.00 | 0.00 | 0.00 | 31 | 1007.6 |
| 20260504184006 | 74 | 153 | 5.0 | 16.0 | 0.00 | 0.00 | 0.00 | 34 | 1007.7 |
| 20260504183505 | 74 | 244 | 6.0 | 16.0 | 0.00 | 0.00 | 0.00 | 34 | 1007.8 |
| 20260504183008 | 74 | 258 | 6.0 | 17.0 | 0.00 | 0.00 | 0.00 | 34 | 1007.8 |
| 20260504182503 | 73 | 240 | 9.0 | 17.0 | 0.00 | 0.00 | 0.00 | 33 | 1007.8 |
| 20260504182003 | 73 | 213 | 8.0 | 17.0 | 0.00 | 0.00 | 0.00 | 35 | 1008.0 |
| 20260504181502 | 73 | 273 | 8.0 | 17.0 | 0.00 | 0.00 | 0.00 | 33 | 1007.9 |
| 20260504181002 | 73 | 271 | 10.0 | 16.0 | 0.00 | 0.00 | 0.00 | 33 | 1008.0 |
| 20260504180504 | 73 | 259 | 3.0 | 15.0 | 0.00 | 0.00 | 0.00 | 35 | 1008.0 |
| 20260504180100 | 73 | 223 | 8.0 | 15.0 | 0.00 | 0.00 | 0.00 | 33 | 1008.1 |
| 20260504175559 | 73 | 224 | 5.0 | 14.0 | 0.00 | 0.00 | 0.00 | 34 | 1008.2 |
| 20260504175058 | 73 | 230 | 7.0 | 14.0 | 0.00 | 0.00 | 0.00 | 34 | 1008.2 |
| 20260504174558 | 72 | 309 | 3.0 | 15.0 | 0.00 | 0.00 | 0.00 | 34 | 1008.3 |
| 20260504174056 | 72 | 138 | 4.0 | 16.0 | 0.00 | 0.00 | 0.00 | 38 | 1008.2 |
| 20260504173558 | 72 | 240 | 5.0 | 18.0 | 0.00 | 0.00 | 0.00 | 37 | 1008.3 |
| 20260504173057 | 72 | 264 | 2.0 | 20.0 | 0.00 | 0.00 | 0.00 | 36 | 1008.3 |
| 20260504172554 | 72 | 307 | 6.0 | 20.0 | 0.00 | 0.00 | 0.00 | 35 | 1008.3 |
| 20260504172054 | 71 | 234 | 6.0 | 16.0 | 0.00 | 0.00 | 0.00 | 37 | 1008.4 |
| 20260504171551 | 71 | 297 | 7.0 | 17.0 | 0.00 | 0.00 | 0.00 | 37 | 1008.5 |
| 20260504171051 | 71 | 284 | 6.0 | 17.0 | 0.00 | 0.00 | 0.00 | 37 | 1008.6 |
| 20260504170553 | 70 | 257 | 7.0 | 15.0 | 0.00 | 0.00 | 0.00 | 37 | 1008.7 |
| 20260504151029 | 65 | 197 | 6.0 | 18.0 | 0.00 | 0.00 | 0.00 | 39 | 1010.3 |
| 20260504150529 | 65 | 277 | 8.0 | 18.0 | 0.00 | 0.00 | 0.00 | 39 | 1010.2 |
| 20260504141013 | 59 | 259 | 5.0 | 16.0 | 0.00 | 0.00 | 0.00 | 43 | 1010.9 |
| 20260504140517 | 60 | 203 | 8.0 | 16.0 | 0.00 | 0.00 | 0.00 | 42 | 1011.0 |
| 20260504130558 | 54 | 200 | 5.0 | 10.0 | 0.00 | 0.00 | 0.00 | 52 | 1011.5 |
| 20260504110537 | 39 | 243 | 0.0 | 0.0 | 0.00 | 0.00 | 0.00 | 82 | 1011.9 |
| 20260504100535 | 38 | 246 | 0.0 | 0.0 | 0.00 | 0.00 | 0.00 | 79 | 1011.6 |
| 20260504081526 | 40 | 244 | 0.0 | 0.0 | 0.00 | 0.00 | 0.00 | 76 | 1012.0 |
| 20260504081028 | 40 | 244 | 0.0 | 0.0 | 0.00 | 0.00 | 0.00 | 76 | 1011.9 |
| 20260504080525 | 40 | 244 | 0.0 | 0.0 | 0.00 | 0.00 | 0.00 | 76 | 1011.9 |
| 20260504050503 | 45 | 161 | 0.0 | 0.0 | 0.00 | 0.00 | 0.00 | 65 | 1012.1 |
| 20260504050001 | 45 | 161 | 0.0 | 0.0 | 0.00 | 0.00 | 0.00 | 65 | 1012.1 |
| 20260504045602 | 45 | 161 | 0.0 | 0.0 | 0.00 | 0.00 | 0.00 | 65 | 1012.1 |
| 20260504045059 | 46 | 161 | 0.0 | 0.0 | 0.00 | 0.00 | 0.00 | 65 | 1012.1 |
| 20260504044559 | 46 | 161 | 0.0 | 0.0 | 0.00 | 0.00 | 0.00 | 64 | 1012.1 |
| 20260504044059 | 46 | 161 | 0.0 | 0.0 | 0.00 | 0.00 | 0.00 | 64 | 1012.1 |
| 20260504043557 | 46 | 161 | 0.0 | 0.0 | 0.00 | 0.00 | 0.00 | 64 | 1012.1 |
| 20260504043101 | 47 | 161 | 0.0 | 0.0 | 0.00 | 0.00 | 0.00 | 63 | 1012.1 |
| 20260504042555 | 47 | 161 | 0.0 | 0.0 | 0.00 | 0.00 | 0.00 | 63 | 1012.1 |
| 20260504042055 | 47 | 161 | 0.0 | 0.0 | 0.00 | 0.00 | 0.00 | 63 | 1012.1 |
| 20260504041553 | 47 | 161 | 0.0 | 0.0 | 0.00 | 0.00 | 0.00 | 63 | 1012.0 |
| 20260504041052 | 48 | 161 | 0.0 | 0.0 | 0.00 | 0.00 | 0.00 | 63 | 1012.0 |
| 20260504040552 | 48 | 161 | 0.0 | 0.0 | 0.00 | 0.00 | 0.00 | 63 | 1012.1 |
| 20260504040118 | 48 | 161 | 0.0 | 0.0 | 0.00 | 0.00 | 0.00 | 63 | 1012.1 |
| 20260504035549 | 48 | 161 | 0.0 | 0.0 | 0.00 | 0.00 | 0.00 | 62 | 1012.1 |
| 20260504035051 | 48 | 161 | 0.0 | 0.0 | 0.00 | 0.00 | 0.00 | 62 | 1012.0 |
| 20260504034550 | 49 | 161 | 0.0 | 0.0 | 0.00 | 0.00 | 0.00 | 62 | 1012.1 |
| 20260504034049 | 49 | 161 | 0.0 | 0.0 | 0.00 | 0.00 | 0.00 | 62 | 1012.0 |
| 20260504033549 | 49 | 161 | 0.0 | 0.0 | 0.00 | 0.00 | 0.00 | 62 | 1012.1 |
| 20260504033050 | 49 | 161 | 0.0 | 0.0 | 0.00 | 0.00 | 0.00 | 62 | 1012.2 |
| 20260504032549 | 49 | 161 | 0.0 | 0.0 | 0.00 | 0.00 | 0.00 | 62 | 1012.1 |
| 20260504032049 | 49 | 161 | 0.0 | 0.0 | 0.00 | 0.00 | 0.00 | 62 | 1012.2 |
| 20260504031556 | 49 | 161 | 0.0 | 0.0 | 0.00 | 0.00 | 0.00 | 61 | 1012.2 |
| 20260504031051 | 50 | 161 | 0.0 | 0.0 | 0.00 | 0.00 | 0.00 | 61 | 1012.1 |
| 20260504030548 | 50 | 161 | 0.0 | 0.0 | 0.00 | 0.00 | 0.00 | 61 | 1012.1 |
| 20260504030049 | 50 | 161 | 0.0 | 0.0 | 0.00 | 0.00 | 0.00 | 61 | 1012.1 |
| 20260504025549 | 50 | 161 | 0.0 | 0.0 | 0.00 | 0.00 | 0.00 | 61 | 1012.1 |
| 20260504025047 | 50 | 161 | 0.0 | 0.0 | 0.00 | 0.00 | 0.00 | 61 | 1012.2 |
| 20260504024549 | 50 | 161 | 0.0 | 0.0 | 0.00 | 0.00 | 0.00 | 60 | 1012.2 |
| 20260504024048 | 50 | 161 | 0.0 | 0.0 | 0.00 | 0.00 | 0.00 | 60 | 1012.2 |
| 20260504023546 | 50 | 161 | 0.0 | 0.0 | 0.00 | 0.00 | 0.00 | 60 | 1012.2 |
| 20260504023046 | 50 | 161 | 0.0 | 2.0 | 0.00 | 0.00 | 0.00 | 60 | 1012.3 |
| 20260504022546 | 50 | 161 | 1.0 | 3.0 | 0.00 | 0.00 | 0.00 | 60 | 1012.4 |
| 20260504022045 | 51 | 171 | 0.0 | 2.0 | 0.00 | 0.00 | 0.00 | 60 | 1012.3 |
| 20260504021545 | 51 | 172 | 0.0 | 0.0 | 0.00 | 0.00 | 0.00 | 59 | 1012.3 |
| 20260504021045 | 51 | 173 | 0.0 | 0.0 | 0.00 | 0.00 | 0.00 | 59 | 1012.4 |
| 20260504020545 | 51 | 162 | 0.0 | 0.0 | 0.00 | 0.00 | 0.00 | 58 | 1012.4 |
| 20260504015548 | 51 | 215 | 0.0 | 0.0 | 0.00 | 0.00 | 0.00 | 56 | 1012.3 |
| 20260504015045 | 51 | 215 | 0.0 | 0.0 | 0.00 | 0.00 | 0.00 | 55 | 1012.3 |
| 20260504014544 | 51 | 215 | 0.0 | 0.0 | 0.00 | 0.00 | 0.00 | 54 | 1012.2 |
| 20260504014043 | 52 | 215 | 0.0 | 0.0 | 0.00 | 0.00 | 0.00 | 54 | 1012.2 |
| 20260504013544 | 52 | 215 | 0.0 | 0.0 | 0.00 | 0.00 | 0.00 | 53 | 1012.1 |
| 20260504013045 | 52 | 215 | 0.0 | 0.0 | 0.00 | 0.00 | 0.00 | 53 | 1012.1 |
| 20260504012542 | 52 | 215 | 0.0 | 0.0 | 0.00 | 0.00 | 0.00 | 52 | 1012.1 |
| 20260504012044 | 52 | 215 | 0.0 | 0.0 | 0.00 | 0.00 | 0.00 | 51 | 1012.1 |
| 20260504011543 | 53 | 215 | 0.0 | 0.0 | 0.00 | 0.00 | 0.00 | 51 | 1012.0 |
| 20260504011041 | 53 | 215 | 0.0 | 0.0 | 0.00 | 0.00 | 0.00 | 50 | 1012.0 |
| 20260504010541 | 53 | 215 | 0.0 | 0.0 | 0.00 | 0.00 | 0.00 | 50 | 1012.0 |
| 20260504010045 | 53 | 215 | 0.0 | 0.0 | 0.00 | 0.00 | 0.00 | 49 | 1012.0 |
| 20260504005541 | 54 | 215 | 0.0 | 0.0 | 0.00 | 0.00 | 0.00 | 48 | 1011.9 |
| 20260504005045 | 54 | 215 | 0.0 | 0.0 | 0.00 | 0.00 | 0.00 | 48 | 1011.9 |
| 20260504004541 | 54 | 215 | 0.0 | 0.0 | 0.00 | 0.00 | 0.00 | 48 | 1011.8 |
| 20260504004043 | 54 | 215 | 0.0 | 0.0 | 0.00 | 0.00 | 0.00 | 47 | 1011.7 |
| 20260504003542 | 54 | 215 | 0.0 | 0.0 | 0.00 | 0.00 | 0.00 | 46 | 1011.7 |
| 20260504003041 | 55 | 215 | 0.0 | 2.0 | 0.00 | 0.00 | 0.00 | 46 | 1011.7 |
| 20260504002540 | 55 | 211 | 0.0 | 2.0 | 0.00 | 0.00 | 0.00 | 45 | 1011.6 |
| 20260504002041 | 55 | 209 | 0.0 | 1.0 | 0.00 | 0.00 | 0.00 | 46 | 1011.6 |